Location: La Pernelle
(49.6188°N, 1.2999°W)
Time: 17:40:28
(UTC+00:00)

SL-16 R/B - Pass Details

Date: 23 October 2021
Orbit: 842 x 846 km, 71.0° (Epoch: 28 November)

Event Time Altitude Azimuth Distance (km) Brightness Sun altitude
Rises 18:06:09 0° 189° (S) 3,387 5.5 -11.5°
Reaches altitude 10° 18:08:39 10° 184° (S) 2,457 4.7 -12.0°
Maximum altitude 18:14:04 50° 111° (ESE) 1,062 2.4 -12.8°
Drops below altitude 10° 18:19:32 10° 37° (NE) 2,476 4.3 -13.7°
Enters shadow 18:21:47 - 33° (NNE) 3,313 5.0 -14.1°
